Retour au catalogue

THORAD DELTA 1 DEB

ActifLEO
NORAD 42628·DEBRIS·🇺🇸 United States

Lancé Nov 15, 1974 depuis Vandenberg Space Force Base

Loading…

Prochains Passages (prochaines 24 heures)

TLE

VieillissantSource: Space-Track

Époque: Sep 8, 2026, 22:04 UTC

1 42628U 74089GV  26251.91980753 -.00000254  00000-0 -22308-2 0  9998
2 42628 101.1407 118.2924 0258105 305.0731  52.6358 12.06961486522916

Suivez THORAD DELTA 1 DEB en temps réel avec AllMySat

Download on the App Store